Theta_e
310 304 299 302 310 311 312 309 308 306 310 310 309 318 317 319 337 333 334 340 344 354 353 353 353 352 351 349 348 346 347 345
304 301 306 309 313 314 308 308 308 309 308 312 317 319 321 329 338 334 336 340 345 354 353 354 352 351 350 349 348 348 347 346
301 303 308 311 314 309 305 307 306 307 308 309 317 322 322 326 334 330 335 337 346 354 354 354 353 351 351 351 351 347 345 345
297 301 308 308 312 313 309 309 307 308 308 308 316 319 319 318 323 334 338 342 347 352 353 353 354 353 352 350 347 344 343 341
302 304 305 309 313 310 311 309 306 311 306 310 313 316 318 317 324 330 336 339 341 345 349 353 351 349 348 345 343 341 337 335
302 302 303 310 309 309 311 311 313 313 307 306 313 316 316 316 318 324 328 330 331 330 333 336 339 346 345 343 339 335 335 334
301 303 306 312 305 311 313 310 311 311 311 316 317 315 314 312 312 313 319 318 322 323 329 329 330 334 341 338 336 336 335 335
311 309 308 311 308 308 307 308 309 311 316 317 316 314 312 311 311 310 311 312 316 319 321 321 327 325 328 328 327 328 326 323
312 313 313 311 311 313 307 304 307 308 313 314 313 312 312 311 311 309 312 316 317 318 320 321 322 322 322 321 322 323 323 322
313 315 313 310 313 311 309 309 312 313 315 314 312 311 311 310 310 311 313 315 316 320 321 321 323 322 322 322 321 321 322 323
315 314 313 314 311 310 310 313 314 313 314 313 313 312 311 310 312 311 314 319 321 322 323 324 323 323 322 323 323 322 321 322
313 312 313 310 311 310 312 314 312 310 311 311 311 311 309 311 311 312 317 320 320 322 323 324 322 322 323 322 324 324 323 323
310 309 307 309 306 307 311 312 310 308 309 310 311 311 312 314 313 314 317 320 319 322 323 323 322 321 321 323 325 324 324 324
303 306 308 306 300 308 311 309 309 310 308 309 308 312 312 314 314 313 318 318 320 325 321 320 320 322 323 324 324 323 324 324
298 305 306 304 302 308 312 311 309 308 309 310 309 310 312 315 315 315 318 318 318 319 318 320 321 321 322 324 324 325 325 324
297 302 304 302 302 307 310 309 309 308 309 310 309 310 314 316 315 316 317 318 318 318 320 321 319 320 322 321 324 326 326 324
300 304 302 301 303 306 309 307 305 306 307 308 309 313 316 317 316 317 318 317 317 318 318 319 317 320 319 320 321 323 325 326
300 303 300 300 301 306 307 307 307 307 307 307 309 313 315 315 315 316 317 318 318 318 318 318 319 322 322 321 323 323 324 327
297 301 302 299 298 302 307 307 308 308 308 310 311 311 314 314 313 314 316 318 319 318 319 319 322 322 321 321 322 323 322 324
300 298 291 300 289 296 301 303 305 306 305 308 310 313 314 313 312 312 314 318 319 319 318 321 321 319 318 318 317 320 321 324
Wind_Speed
4 3 5 5 7 8 7 7 6 3 2 7 7 2 11 6 12 13 14 14 14 20 18 16 15 13 12 13 13 14 14 13
2 9 9 7 16 6 5 4 2 4 7 3 6 13 8 13 15 14 11 13 13 18 16 14 14 14 13 14 13 13 13 13
4 8 7 10 10 7 2 4 2 3 3 1 2 7 12 14 12 12 9 9 11 18 16 15 16 16 15 14 13 13 14 14
5 6 5 5 7 2 3 5 5 6 9 7 5 11 9 9 10 11 13 9 11 17 18 18 17 16 14 12 11 11 10 8
5 13 9 1 8 5 8 7 6 12 7 2 6 10 10 9 11 9 11 11 9 11 15 18 15 13 12 13 12 11 9 8
6 5 13 6 8 7 4 8 3 8 8 5 9 9 8 8 10 10 10 11 10 6 5 6 6 13 14 13 12 12 11 10
7 7 10 15 4 8 4 1 4 5 9 9 14 10 8 5 4 5 5 4 6 7 6 6 6 6 10 13 13 11 10 10
14 8 12 17 5 8 5 6 5 1 4 8 16 14 14 8 9 6 6 5 7 7 7 6 3 5 5 5 3 4 4 5
19 16 16 18 18 12 7 6 8 7 9 11 8 8 11 9 9 9 7 6 7 7 7 7 5 4 1 2 2 3 6 6
24 21 17 19 19 18 7 11 6 10 17 10 12 14 12 11 9 11 9 10 8 7 7 5 4 3 3 3 3 3 5 6
20 18 21 20 19 21 13 13 4 10 13 18 17 15 11 9 10 9 9 9 10 9 7 6 5 2 3 4 4 5 4 5
17 19 22 20 22 10 12 10 10 10 17 15 16 18 7 10 12 10 12 11 10 9 8 7 5 5 5 3 5 4 4 5
18 15 21 14 21 15 12 10 9 12 14 14 18 11 18 18 18 15 11 11 9 9 8 8 6 5 4 4 4 4 4 5
10 12 19 8 25 16 12 9 12 12 10 12 11 18 12 16 15 10 11 10 8 7 8 6 5 4 3 4 4 4 4 4
16 10 13 8 20 15 14 16 19 12 10 11 10 7 11 15 15 12 11 10 8 8 8 7 5 3 3 5 4 4 4 4
19 16 9 12 15 18 18 14 19 10 11 10 8 14 11 9 10 10 9 9 9 6 7 5 2 2 1 2 4 4 4 4
22 22 6 9 15 24 19 2 9 11 10 11 6 8 11 11 10 9 8 9 8 7 5 3 1 1 1 3 3 4 4 5
23 20 5 14 18 24 12 7 11 15 10 5 7 11 14 13 9 8 9 8 8 7 5 3 2 2 2 2 4 4 2 4
20 19 9 9 14 14 11 4 5 7 6 11 19 17 16 14 10 9 9 9 8 7 7 4 3 1 1 2 3 2 1 3
17 11 8 7 7 6 8 6 4 8 5 10 15 14 15 12 9 10 8 7 8 8 6 4 4 2 2 1 2 1 2 1
Wind_Direction
154 194 198 218 247 232 290 217 222 95 84 147 172 113 151 160 162 139 164 174 185 186 186 186 187 191 196 202 207 215 225 225
178 238 262 236 268 275 267 327 17 137 83 43 258 160 166 151 157 158 162 173 180 180 182 182 187 193 201 213 220 226 234 231
255 255 263 279 277 243 293 305 21 116 155 87 274 140 143 153 156 154 162 167 169 174 176 182 192 197 204 218 220 226 234 241
256 253 257 303 244 261 249 276 142 89 138 190 155 140 177 133 142 151 153 153 163 171 179 187 193 196 199 203 193 196 210 230
267 286 300 232 304 276 245 233 219 155 139 260 192 183 168 131 132 143 147 152 168 176 185 190 188 188 184 194 197 203 214 225
237 269 285 277 339 301 320 261 112 161 168 189 216 180 121 132 142 157 162 169 180 165 156 151 169 182 196 200 204 207 207 216
241 226 254 287 334 285 274 163 281 217 153 201 152 128 118 128 168 146 175 166 141 148 163 151 186 201 205 211 216 214 214 225
236 255 271 283 263 288 310 314 277 23 22 122 138 155 161 170 193 189 164 148 139 134 136 159 157 208 199 224 243 207 199 212
269 260 264 271 287 280 272 298 263 199 177 155 145 163 172 191 198 189 160 137 152 150 162 152 154 137 164 235 228 179 209 218
252 260 267 266 275 274 242 254 249 191 178 157 165 180 187 195 167 152 159 152 155 154 155 152 135 152 178 153 180 200 225 231
256 266 266 270 263 256 258 264 245 173 175 180 183 188 199 172 161 151 146 154 164 166 152 165 135 184 205 212 214 222 230 218
261 266 270 267 272 262 254 253 279 177 195 191 186 194 161 164 164 162 157 164 161 162 166 147 175 203 218 224 245 248 238 227
261 260 264 283 278 259 255 258 228 204 198 199 201 179 186 174 169 163 164 158 166 161 154 157 188 221 236 238 237 246 246 241
248 260 266 212 269 278 259 246 237 220 224 203 198 199 186 168 163 159 148 158 164 147 155 159 196 228 241 231 235 241 240 241
275 248 268 233 271 272 281 257 242 222 220 226 211 173 175 175 158 151 152 147 135 135 144 158 190 233 261 247 235 238 226 229
257 250 258 264 265 266 260 245 225 210 231 226 186 193 165 132 139 137 141 130 132 148 138 152 175 334 324 274 262 231 220 220
260 265 279 258 265 265 266 276 251 224 233 230 172 130 134 142 143 133 128 130 144 141 157 133 96 3 306 243 264 251 221 232
273 268 261 276 284 272 264 232 215 227 237 172 122 144 145 152 152 137 143 147 146 163 159 151 139 207 204 230 260 247 228 254
248 280 267 269 278 268 285 251 188 245 232 153 167 158 159 161 153 137 145 160 159 168 154 144 114 95 9 354 305 349 279 255
252 260 256 133 272 282 249 281 276 292 194 172 168 163 155 151 150 153 165 160 149 156 151 136 136 114 126 228 286 272 268 271